EW6283 Weather Reports


time (UTC)temp
F
wind
direction
speed
knots
gust
knots
rain 1hr
in
rain 24hr
in
rain mn
in
humidity
%
barometer
mb
20260506202028 60 151 2.6 13.0 0.00 0.40 0.40 90 1002.3
20260506201528 60 230 9.6 13.0 0.00 0.40 0.40 90 1002.4
20260506201027 60 210 6.1 15.6 0.00 0.40 0.40 90 1002.5
20260506200642 60 203 12.2 15.6 0.00 0.40 0.40 90 1002.6
20260506200029 60 183 5.2 14.8 0.00 0.40 0.40 91 1002.6
20260506195643 60 199 8.7 16.5 0.00 0.40 0.40 91 1002.6
20260506195258 60 210 8.7 16.5 0.00 0.40 0.40 90 1002.6
20260506194529 60 201 8.7 14.8 0.00 0.40 0.40 90 1002.7
20260506194142 60 209 5.2 14.8 0.00 0.40 0.40 90 1002.7
20260506193527 60 193 7.8 14.8 0.00 0.39 0.39 90 1002.7
20260506193144 60 249 13.0 17.4 0.00 0.39 0.39 90 1002.8
20260506192642 60 206 13.9 18.2 0.00 0.39 0.39 90 1002.8
20260506192027 60 197 9.6 17.4 0.00 0.39 0.39 90 1002.9
20260506191528 60 224 7.8 13.9 0.00 0.39 0.39 90 1002.8
20260506191027 60 203 7.8 15.6 0.04 0.39 0.39 91 1002.8
20260506190642 60 203 8.7 15.6 0.04 0.39 0.39 90 1002.9
20260506190143 60 194 9.6 16.5 0.08 0.39 0.39 91 1002.9
20260506185529 60 214 7.0 16.5 0.13 0.39 0.39 91 1002.9
20260506185142 60 201 8.7 14.8 0.17 0.38 0.38 91 1003.0
20260506184528 60 229 7.8 14.8 0.14 0.36 0.36 92 1003.1
20260506184143 60 167 9.6 13.9 0.11 0.36 0.36 92 1003.0
20260506183528 60 196 5.2 8.7 0.07 0.34 0.34 93 1003.0
20260506183143 60 226 4.3 6.1 0.07 0.34 0.34 93 1003.0
20260506182527 60 216 2.6 4.3 0.05 0.33 0.33 93 1003.0
20260506182026 60 258 1.7 5.2 0.05 0.33 0.33 93 1003.0
20260506181529 60 191 2.6 5.2 0.04 0.32 0.32 93 1003.0
20260506181027 60 209 3.5 5.2 0.04 0.32 0.32 93 1003.1
20260506180528 60 227 3.5 5.2 0.05 0.31 0.31 93 1003.2
20260506180029 59 243 3.5 6.1 0.07 0.31 0.31 93 1003.2
20260506175643 59 229 3.5 6.1 0.07 0.31 0.31 93 1003.3
20260506175027 59 227 4.3 6.1 0.07 0.30 0.30 93 1003.4
20260506174529 59 205 3.5 7.0 0.07 0.30 0.30 93 1003.3
20260506174142 59 196 4.3 7.0 0.12 0.28 0.28 93 1003.4
20260506173528 59 136 2.6 7.0 0.24 0.28 0.28 92 1003.5
20260506173029 59 197 2.6 7.0 0.39 0.26 0.26 92 1003.7
20260506172527 59 196 4.3 7.8 0.16 0.23 0.23 91 1003.7
20260506172027 60 195 1.7 7.8 0.25 0.22 0.22 92 1003.7
20260506171644 60 207 2.6 8.7 0.17 0.20 0.20 92 1003.9
20260506171142 60 187 2.6 8.7 0.12 0.19 0.19 91 1003.7
20260506170643 60 164 4.3 8.7 0.16 0.18 0.18 91 1003.7
20260506170143 60 103 0.9 9.6 0.22 0.16 0.16 91 1003.9
20260506165528 60 168 3.5 9.6 0.17 0.15 0.15 91 1004.1
20260506165027 60 185 1.7 6.1 0.11 0.13 0.13 91 1004.3
20260506164529 60 164 0.9 5.2 0.12 0.12 0.12 91 1004.3
20260506164027 60 202 1.7 6.1 0.09 0.11 0.11 90 1004.3
20260506163527 60 195 5.2 7.8 0.12 0.10 0.10 90 1004.3
20260506163030 60 201 7.0 7.8 0.12 0.09 0.09 90 1004.4
20260506162757 60 209 6.1 14.8 0.11 0.09 0.09 89 1004.3
20260506162028 61 203 5.2 14.8 0.09 0.08 0.08 89 1004.5
20260506161529 61 210 0.9 10.4 0.10 0.07 0.07 89 1004.4
20260506161026 61 214 5.2 7.0 0.06 0.06 0.06 89 1004.5
20260506160642 61 197 3.5 6.1 0.00 0.05 0.05 89 1004.6
20260506160028 61 217 3.5 5.2 0.00 0.05 0.05 89 1004.6
20260506155528 61 226 4.3 6.1 0.00 0.04 0.04 89 1004.5
20260506155142 61 226 3.5 6.1 0.00 0.04 0.04 88 1004.5
20260506154643 61 235 0.9 3.5 0.00 0.04 0.04 88 1004.3
20260506154143 61 201 1.7 6.1 0.00 0.04 0.04 89 1004.4
20260506153527 61 190 2.6 6.1 0.00 0.04 0.04 88 1004.4
20260506153029 61 178 0.9 3.5 0.00 0.03 0.03 88 1004.4
20260506152528 61 184 1.7 5.2 0.00 0.03 0.03 88 1004.5
20260506152028 61 199 2.6 8.7 0.00 0.03 0.03 87 1004.7
20260506151528 61 199 5.2 8.7 0.00 0.03 0.03 86 1004.8
20260506151027 62 271 2.6 7.8 0.00 0.02 0.02 86 1004.9
20260506150642 62 201 4.3 7.8 0.04 0.02 0.02 85 1004.9
20260506150143 62 207 4.3 12.2 0.05 0.02 0.02 85 1005.0
20260506145642 62 202 5.2 12.2 0.05 0.02 0.02 85 1005.1
20260506145142 62 199 3.5 12.2 0.00 0.01 0.01 84 1005.1
20260506144644 62 173 7.8 12.2 0.00 0.01 0.01 83 1005.2
20260506144028 63 212 8.7 13.9 0.00 0.01 0.01 82 1005.2
20260506143528 63 187 7.0 13.9 0.00 0.00 0.00 80 1005.3
20260506143028 64 218 1.7 15.6 0.00 0.00 0.00 79 1005.2
20260506142643 64 198 6.1 15.6 0.00 0.00 0.00 78 1005.2
20260506142027 64 192 14.8 16.5 0.00 0.00 0.00 76 1005.2
20260506141529 64 190 4.3 19.1 0.00 0.00 0.00 76 1005.2
20260506141027 64 200 6.1 19.1 0.00 0.00 0.00 76 1005.1
20260506140528 64 208 3.5 8.7 0.00 0.00 0.00 78 1005.1
20260506140144 64 195 3.5 7.8 0.00 0.00 0.00 78 1004.9
20260506135643 64 194 2.6 7.8 0.00 0.00 0.00 78 1005.0
20260506135027 64 159 0.0 9.6 0.00 0.00 0.00 78 1004.8
20260506134528 64 143 0.0 9.6 0.00 0.00 0.00 78 1004.8
20260506134027 64 167 4.3 7.8 0.00 0.00 0.00 78 1004.8
20260506133528 64 181 3.5 11.3 0.00 0.00 0.00 78 1004.7
20260506133028 64 152 6.1 11.3 0.00 0.00 0.00 78 1004.6
20260506132643 64 98 2.6 10.4 0.00 0.00 0.00 78 1004.6
20260506132142 63 206 1.7 10.4 0.00 0.00 0.00 79 1004.7
20260506131529 63 73 2.6 7.0 0.00 0.00 0.00 79 1004.8
20260506131027 63 140 0.0 7.8 0.00 0.00 0.00 79 1004.8
20260506130642 62 129 4.3 7.8 0.00 0.00 0.00 79 1004.8
20260506130259 62 214 4.3 7.8 0.00 0.00 0.00 80 1004.8
20260506125527 62 143 3.5 7.8 0.00 0.00 0.00 80 1005.1
20260506125142 62 127 1.7 6.1 0.00 0.00 0.00 80 1005.1
20260506124645 62 197 1.7 5.2 0.00 0.00 0.00 80 1005.2
20260506124142 61 184 0.9 7.8 0.00 0.00 0.00 80 1005.3
20260506123528 61 239 1.7 9.6 0.00 0.00 0.00 80 1005.5
20260506123027 61 241 1.7 9.6 0.00 0.00 0.00 80 1005.5
20260506122528 61 111 2.6 10.4 0.00 0.00 0.00 80 1005.5
20260506122027 61 186 6.1 12.2 0.00 0.00 0.00 80 1005.6
20260506121529 61 95 0.9 12.2 0.00 0.00 0.00 80 1005.5
20260506121029 61 179 5.2 9.6 0.00 0.00 0.00 80 1005.5
20260506120528 61 174 5.2 9.6 0.00 0.00 0.00 79 1005.5
20260506120029 61 154 0.9 8.7 0.00 0.00 0.00 79 1005.5
20260506115527 61 141 5.2 8.7 0.00 0.00 0.00 79 1005.4
20260506115142 61 254 3.5 11.3 0.00 0.00 0.00 79 1005.4
20260506114027 61 85 1.7 11.3 0.00 0.00 0.00 79 1005.2
20260506113643 61 187 1.7 13.9 0.00 0.00 0.00 79 1005.2
20260506113143 61 174 7.0 13.9 0.00 0.00 0.00 79 1005.2
20260506112528 60 229 4.3 9.6 0.00 0.00 0.00 79 1004.8
20260506112027 60 169 4.3 13.9 0.00 0.00 0.00 79 1004.9
20260506111529 60 111 9.6 13.9 0.00 0.00 0.00 79 1005.0
20260506111143 60 272 1.7 13.0 0.00 0.00 0.00 79 1005.2
20260506110528 60 27 3.5 13.0 0.00 0.00 0.00 79 1005.1
20260506110029 60 181 2.6 13.0 0.00 0.00 0.00 79 1005.3
20260506105758 60 359 3.5 15.6 0.00 0.00 0.00 79 1005.3
20260506105027 60 138 0.9 15.6 0.00 0.00 0.00 79 1005.2
20260506104528 60 151 6.1 12.2 0.00 0.00 0.00 80 1005.2
20260506104027 59 206 7.8 10.4 0.00 0.00 0.00 81 1005.3
20260506103528 58 93 1.7 9.6 0.00 0.00 0.00 83 1005.1
20260506103143 58 144 2.6 8.7 0.00 0.00 0.00 85 1005.2
20260506102757 57 191 6.1 9.6 0.00 0.00 0.00 86 1005.1
20260506102027 55 198 4.3 9.6 0.00 0.00 0.00 90 1005.1
20260506101530 54 179 3.5 8.7 0.00 0.00 0.00 94 1005.1
20260506101027 53 195 7.0 7.0 0.00 0.00 0.00 95 1005.1
20260506100527 52 218 0.9 3.5 0.00 0.00 0.00 96 1005.1
20260506100029 51 236 2.6 2.6 0.00 0.00 0.00 96 1005.0
20260506095642 51 236 0.0 3.5 0.00 0.00 0.00 95 1004.9
20260506095028 51 236 0.0 3.5 0.00 0.00 0.00 95 1004.9
20260506094528 51 297 0.0 0.0 0.00 0.00 0.00 95 1004.9
20260506094142 51 297 0.0 1.7 0.00 0.00 0.00 95 1004.8
20260506093642 51 297 0.0 1.7 0.00 0.00 0.00 95 1004.8
20260506093144 51 297 1.7 2.6 0.00 0.00 0.00 95 1004.9
20260506092530 51 297 0.0 2.6 0.00 0.00 0.00 95 1005.0
20260506092257 51 297 0.9 2.6 0.00 0.00 0.00 94 1004.9
20260506091529 52 297 0.9 3.5 0.00 0.00 0.00 95 1004.8
20260506091142 51 297 0.9 3.5 0.00 0.00 0.00 94 1004.9
20260506090528 52 299 0.0 3.5 0.00 0.00 0.00 94 1004.9
20260506090144 52 238 0.0 0.0 0.00 0.00 0.00 94 1004.9
20260506085527 52 238 0.0 0.0 0.00 0.00 0.00 94 1005.1
20260506085142 52 238 0.0 0.0 0.00 0.00 0.00 94 1005.2
20260506084529 52 238 0.0 0.0 0.00 0.00 0.00 94 1005.3
20260506084027 53 238 0.0 0.0 0.00 0.00 0.00 94 1005.1
20260506083527 53 238 0.0 0.0 0.00 0.00 0.00 94 1005.1
20260506083029 53 238 0.0 0.0 0.00 0.00 0.00 94 1005.1
20260506082529 53 238 0.0 0.0 0.00 0.00 0.00 94 1005.2
20260506082027 53 238 0.0 0.0 0.00 0.00 0.00 94 1005.3
20260506081645 53 238 0.0 0.0 0.00 0.00 0.00 94 1005.2
20260506081027 53 238 0.0 0.0 0.00 0.00 0.00 93 1005.5
20260506080528 54 238 0.0 0.0 0.00 0.00 0.00 94 1005.4
20260506080143 54 238 0.0 0.0 0.00 0.00 0.00 94 1005.5
20260506073029 55 238 0.0 1.7 0.00 0.00 0.00 93 1005.6
20260506072527 55 238 0.9 1.7 0.00 0.00 0.00 93 1005.8
20260506072027 55 238 0.9 1.7 0.00 0.00 0.00 93 1005.8
20260506071528 55 238 0.9 3.5 0.00 0.00 0.00 93 1005.9
20260506071027 55 238 0.9 3.5 0.00 0.00 0.00 93 1005.9
20260506070642 55 214 2.6 3.5 0.00 0.00 0.00 93 1006.0
20260506062028 56 170 0.0 0.0 0.00 0.00 0.00 92 1005.9
20260506061528 56 170 0.0 0.0 0.00 0.00 0.00 92 1005.9
20260506061027 56 170 0.0 0.0 0.00 0.00 0.00 92 1006.0
20260506060643 56 170 0.0 1.7 0.00 0.00 0.00 92 1005.9
20260506060145 56 170 0.0 1.7 0.00 0.00 0.00 92 1006.0
20260506051142 57 169 0.0 0.0 0.00 0.00 0.00 92 1006.2
20260506050528 57 169 0.0 3.5 0.00 0.00 0.00 92 1006.5
20260506045027 58 125 0.0 0.0 0.00 0.00 0.00 90 1006.4
20260506044528 58 125 0.0 1.7 0.00 0.00 0.00 90 1006.4
20260506044027 58 251 0.0 2.6 0.00 0.00 0.00 91 1006.4
20260506043527 58 251 0.9 2.6 0.00 0.00 0.00 91 1006.3
20260506043028 58 251 0.9 3.5 0.00 0.00 0.00 91 1006.2
20260506042527 58 251 1.7 3.5 0.00 0.00 0.00 91 1006.1
20260506042028 58 251 1.7 2.6 0.00 0.00 0.00 91 1006.1
20260506041643 58 251 1.7 2.6 0.00 0.00 0.00 91 1006.1
20260506041027 59 212 1.7 2.6 0.00 0.00 0.00 91 1006.1
20260506040527 59 212 0.0 3.5 0.00 0.00 0.00 91 1006.0
20260506040028 59 212 1.7 3.5 0.00 0.00 0.00 91 1006.1
20260506035528 59 160 0.0 1.7 0.00 0.01 0.01 90 1005.9
20260506035027 59 160 0.0 5.2 0.00 0.01 0.01 90 1006.0
20260506034530 59 135 0.9 5.2 0.00 0.01 0.01 90 1005.9
20260506034142 59 154 1.7 2.6 0.00 0.01 0.01 89 1005.9
20260506033528 59 286 1.7 2.6 0.00 0.01 0.01 90 1006.1
20260506033028 59 285 0.0 0.0 0.00 0.01 0.01 90 1006.0
20260506032528 59 285 0.0 0.0 0.00 0.01 0.01 89 1005.9
20260506032142 59 285 0.0 0.0 0.00 0.01 0.01 90 1005.8
20260506031644 60 285 0.0 0.0 0.00 0.01 0.01 90 1005.8
20260506031143 60 285 0.0 0.0 0.00 0.01 0.01 89 1005.8
20260506030527 60 319 0.0 0.0 0.00 0.01 0.01 89 1005.8
20260506030029 59 320 0.0 0.0 0.00 0.01 0.01 89 1005.7
20260506025643 60 316 0.0 0.9 0.00 0.01 0.01 89 1005.9
20260506025143 60 316 0.0 0.9 0.00 0.01 0.01 89 1006.0
20260506024528 60 315 0.0 2.6 0.00 0.01 0.01 89 1005.9
20260506024028 60 316 0.0 2.6 0.00 0.01 0.01 89 1005.9
20260506023527 60 316 1.7 4.3 0.00 0.01 0.01 89 1005.9
20260506023028 60 324 3.5 4.3 0.00 0.01 0.01 89 1006.0
20260506022642 60 255 1.7 2.6 0.00 0.01 0.01 89 1006.0
20260506022027 60 174 0.0 1.7 0.00 0.01 0.01 88 1006.1
20260506021529 60 298 0.0 0.0 0.00 0.01 0.01 88 1006.1
20260506021142 60 299 0.0 0.0 0.00 0.01 0.01 88 1006.2
20260506020527 60 299 0.0 0.9 0.00 0.01 0.01 87 1006.1
20260506020027 60 299 0.0 0.9 0.00 0.01 0.01 87 1006.1
20260506015527 60 299 0.9 3.5 0.00 0.01 0.01 87 1006.2
20260506015027 61 299 1.7 3.5 0.00 0.01 0.01 87 1006.1
20260506014528 61 108 0.0 0.0 0.00 0.01 0.01 86 1006.0
20260506014031 61 108 0.0 0.0 0.00 0.01 0.01 85 1005.9
20260506013643 62 108 0.0 5.2 0.00 0.01 0.01 83 1005.8
20260506013258 62 31 0.0 5.2 0.00 0.01 0.01 83 1005.8
20260506012642 61 4 4.3 4.3 0.00 0.01 0.01 84 1005.8
20260506012027 61 342 3.5 4.3 0.00 0.01 0.01 84 1005.9
20260506011529 61 252 2.6 3.5 0.00 0.01 0.01 84 1005.9
20260506011028 61 252 1.7 2.6 0.00 0.01 0.01 84 1005.6
20260506010528 61 252 0.9 2.6 0.00 0.01 0.01 84 1005.6
20260506010027 61 252 0.9 2.6 0.00 0.01 0.01 85 1005.5
20260506005528 61 252 1.7 2.6 0.00 0.01 0.01 84 1005.4
20260506005027 62 252 1.7 2.6 0.00 0.01 0.01 84 1005.4
20260506004529 62 210 0.0 2.6 0.00 0.01 0.01 83 1005.4
20260506004028 62 210 0.0 2.6 0.00 0.01 0.01 82 1005.3
20260506003527 63 210 0.9 2.6 0.00 0.01 0.01 81 1005.3
20260506003028 63 210 0.0 1.7 0.00 0.01 0.01 79 1005.2
20260506002643 63 210 0.0 1.7 0.00 0.01 0.01 79 1005.1
20260506002027 63 210 0.9 1.7 0.00 0.01 0.01 78 1005.0
20260506001644 63 210 0.0 1.7 0.00 0.01 0.01 77 1005.0
20260506001027 63 210 0.9 3.5 0.00 0.01 0.01 78 1004.9
20260506000528 64 210 0.0 3.5 0.00 0.01 0.01 77 1004.8
20260506000028 63 273 1.7 2.6 0.00 0.01 0.01 77 1004.8
20260505235528 64 21 0.9 1.7 0.00 0.01 0.01 77 1004.8
20260505235027 64 21 0.0 0.0 0.00 0.01 0.01 75 1004.8
20260505234644 64 21 0.0 0.0 0.00 0.01 0.01 76 1004.8
20260505234027 64 21 0.0 0.0 0.00 0.01 0.01 75 1005.0
20260505233527 64 21 0.0 0.9 0.00 0.01 0.01 74 1005.2
20260505233028 64 21 0.0 2.6 0.00 0.01 0.01 74 1005.0
20260505232527 64 21 0.0 2.6 0.00 0.01 0.01 73 1005.0
20260505232142 64 17 1.7 2.6 0.00 0.01 0.01 74 1005.0
20260505231529 65 15 0.0 3.5 0.00 0.01 0.01 73 1004.9
20260505231027 65 14 0.9 8.7 0.00 0.01 0.01 73 1004.7
20260505230643 65 108 0.0 8.7 0.00 0.01 0.01 72 1004.6
20260505230144 65 70 2.6 8.7 0.00 0.01 0.01 71 1005.0
20260505225527 65 74 8.7 8.7 0.00 0.01 0.01 69 1005.1
20260505225027 66 23 2.6 12.2 0.00 0.01 0.01 68 1005.1
20260505224529 65 314 3.5 12.2 0.00 0.01 0.01 69 1005.0
20260505224028 65 301 12.2 14.8 0.00 0.01 0.01 71 1004.8
20260505223527 65 306 12.2 16.5 0.00 0.01 0.01 72 1004.5
20260505223143 65 300 7.8 23.5 0.00 0.01 0.01 72 1004.3
20260505222757 65 316 9.6 27.8 0.00 0.01 0.01 70 1004.3
20260505222028 71 301 14.8 27.8 0.00 0.01 0.01 56 1004.1
20260505221528 76 282 20.9 21.7 0.00 0.01 0.01 41 1003.7
20260505221026 77 283 6.1 21.7 0.00 0.01 0.01 35 1003.1
20260505220643 77 234 9.6 20.9 0.00 0.01 0.01 35 1002.9
20260505220028 77 213 7.8 22.6 0.00 0.01 0.01 33 1002.5
20260505215528 77 214 8.7 22.6 0.00 0.01 0.01 34 1002.4
20260505215027 78 196 7.8 23.5 0.00 0.01 0.01 34 1002.3
20260505214529 78 280 10.4 23.5 0.00 0.01 0.01 33 1002.3
20260505214028 77 228 14.8 18.2 0.00 0.01 0.01 34 1002.3
20260505213527 77 216 3.5 24.3 0.00 0.01 0.01 35 1002.2
20260505213143 78 238 18.2 24.3 0.00 0.01 0.01 34 1002.2
20260505212757 78 190 7.8 18.2 0.00 0.01 0.01 34 1002.3
20260505212027 78 224 8.7 27.8 0.00 0.01 0.01 34 1002.2
20260505211644 78 193 7.8 27.8 0.00 0.01 0.01 34 1002.2
20260505211027 78 186 11.3 28.7 0.00 0.01 0.01 35 1002.2
20260505210527 78 173 7.0 28.7 0.00 0.01 0.01 34 1002.1
20260505210143 78 154 20.0 27.8 0.00 0.01 0.01 34 1001.9
20260505205528 79 201 10.4 26.1 0.00 0.01 0.01 34 1001.8
20260505205027 79 228 13.9 27.8 0.00 0.01 0.01 35 1001.7
20260505204530 79 208 22.6 30.4 0.00 0.01 0.01 34 1001.9
20260505204028 79 197 12.2 31.3 0.00 0.01 0.01 34 1001.9
20260505203527 79 193 8.7 24.3 0.00 0.01 0.01 35 1001.8
20260505203028 79 198 13.0 24.3 0.00 0.01 0.01 35 1002.2
20260505202528 79 230 10.4 19.1 0.00 0.01 0.01 36 1002.2